SCP
0 0 0 0 0 0 0 0 0 0 0 0 0 0 0 0 0 0 0 0 0 0 0 0 0 0 0 0 0 0 0 0 0 0 0 0 0 0 0 0 0 0 0 0
0 0 0 0 0 0 0 0 0 0 0 0 0 0 0 0 0 0 0 0 0 0 0 0 0 0 0 0 0 0 0 0 0 0 0 0 0 0 0 0 0 0 0 0
0 0 0 0 0 0 0 0 0 0 0 0 0 0 0 0 0 0 0 0 0 0 0 0 0 0 0 0 0 0 0 0 0 0 0 0 0 0 0 0 0 0 0 0
0 0 0 0 0 0 0 0 0 0 0 0 0 0 0 0 0 0 0 0 0 0 0 0 0 0 0 0 0 0 0 0 0 0 0 0 0 0 0 0 0 0 0 0
0 0 0 0 0 0 0 0 0 0 0 0 0 0 0 0 0 0 0 0 0 0 0 0 0 0 0 0 0 0 0 0 0 0 0 0 0 0 0 0 0 0 0 0
0 0 0 0 0 0 0 0 0 0 0 0 0 0 0 0 0 0 0 0 0 0 0 0 0 0 0 0 0 0 0 0 0 0 0 0 0 0 0 0 0 0 0 0
0 0 0 0 0 0 0 0 0 0 0 0 0 0 0 0 0 0 0 0 0 0 0 0 0 0 0 0 0 0 0 0 0 0 0 0 0 0 0 0 0 0 0 0
0 0 0 0 0 0 0 0 0 0 0 0 0 0 0 0 0 0 0 0 0 0 0 0 0 0 0 0 0 0 0 0 0 0 0 0 0 0 0 0 0 0 0 0
0 0 0 0 0 0 0 0 0 0 0 0 0 0 0 0 0 0 0 0 0 0 0 0 0 0 0 0 0 0 0 0 0 0 0 0 0 0 0 0 0 0 0 0
0 0 0 0 0 0 0 0 0 0 0 0 0 0 0 0 0 0 0 0 0 0 0 0 0 0 0 0 0 0 0 0 0 0 0 0 0 0 0 0 0 0 0 0
0 0 0 0 0 0 0 0 0 0 0 0 0 0 0 0 0 0 0 0 0 0 0 0 0 0 0 0 0 0 0 0 0 0 0 0 0 0 0 0 0 0 0 0
0 0 0 0 0 0 0 0 0 0 0 0 0 0 0 0 0 0 0 0 0 0 0 0 0 0 0 0 0 0 0 0 0 0 0 0 0 0 0 0 0 0 0 0
0 0 0 0 0 0 0 0 0 0 0 0 0 0 0 0 0 0 0 0 0 0 0 0 0 0 0 0 0 0 0 0 0 0 0 0 0 0 0 0 0 0 0 0
0 0 0 0 0 0 0 0 0 0 0 0 0 0 0 0 0 0 0 0 0 0 0 0 0 0 0 0 0 0 0 0 0 0 0 0 0 0 0 0 0 0 0 0
0 0 0 0 0 0 0 0 0 0 0 0 0 0 0 0 0 0 0 0 0 0 0 0 0 0 0 0 0 0 0 0 0 0 0 0 0 0 0 0 0 0 0 0
0 0 0 0 0 0 0 0 0 0 0 0 0 0 0 0 0 0 0 0 0 0 0 0 0 0 0 0 0 0 0 0 0 0 0 0 0 0 0 0 0 0 0 0
0 0 0 0 0 0 0 0 0 0 0 0 0 0 0 0 0 0 0 0 0 0 0 0 0 0 0 0 0 0 0 0 0 0 0 0 0 0 0 0 0 0 0 0
0 0 0 0 0 0 0 0 0 0 0 0 0 0 0 0 0 0 0 0 0 0 0 0 0 0 0 0 0 0 0 0 0 0 0 0 0 0 0 0 0 0 0 0
0 0 0 0 0 0 0 0 0 0 0 0 0 0 0 0 0 0 0 0 0 0 0 0 0 0 0 0 0 0 0 0 0 0 0 0 0 0 0 0 0 0 0 0
0 0 0 0 0 0 0 0 0 0 0 0 0 0 0 0 0 0 0 0 0 0 0 0 0 0 0 0 0 0 0 0 0 0 0 0 0 0 0 0 0 0 0 0
0 0 0 0 0 0 0 0 0 0 0 0 0 0 0 0 0 0 0 0 0 0 0 0 0 0 0 0 0 0 0 0 0 0 0 0 0 0 0 0 0 0 0 0
0 0 0 0 0 0 0 0 0 0 0 0 0 0 0 0 0 0 0 0 0 0 0 0 0 0 0 0 0 0 0 0 0 0 0 0 0 0 0 0 0 0 0 0
0 0 0 0 0 0 0 0 0 0 0 0 0 0 0 0 0 0 0 0 0 0 0 0 0 0 0 0 0 0 0 0 0 0 0 0 0 0 0 0 0 0 0 0
0 0 0 0 0 0 0 0 0 0 0 0 0 0 0 0 0 0 0 0 0 0 0 0 0 0 0 0 0 0 0 0 0 0 0 0 0 0 0 0 0 0 0 0
0 0 0 0 0 0 0 0 0 0 0 0 0 0 0 0 0 0 0 0 0 0 0 0 0 0 0 0 0 0 0 0 0 0 0 0 0 0 0 0 0 0 0 0
0 0 0 0 0 0 0 0 0 0 0 0 0 0 0 0 0 0 0 0 0 0 0 0 0 0 0 0 0 0 0 0 0 0 0 0 0 0 0 0 0 0 0 0
0 0 0 0 0 0 0 0 0 0 0 0 0 0 0 0 0 0 0 0 0 0 0 0 0 0 0 0 0 0 0 0 0 0 0 0 0 0 0 0 0 0 0 0
Wind_Speed
8 8 7 8 9 10 12 11 11 11 12 12 9 8 8 7 6 5 5 4 4 3 3 2 2 3 3 3 3 4 5 5 5 5 4 4 4 4 4 4 4 4 4 4
7 7 8 10 12 13 14 14 15 14 16 12 9 7 7 7 6 6 6 5 5 4 3 3 3 3 3 4 4 4 5 5 4 4 4 4 4 4 4 4 4 4 4 4
6 4 6 11 12 12 11 12 12 15 13 8 8 8 8 7 7 7 7 6 5 5 4 4 4 4 4 4 4 4 4 4 5 5 5 4 4 4 4 4 4 4 4 4
4 3 9 5 2 7 11 12 12 11 10 8 9 9 8 7 7 7 6 6 5 5 4 4 3 3 4 4 4 4 5 5 5 5 5 4 5 5 4 4 4 4 4 4
4 6 10 7 4 4 7 10 8 10 10 8 7 7 6 5 5 6 6 6 5 4 4 4 4 3 4 4 4 5 5 5 5 5 5 5 5 5 5 4 4 4 4 4
5 7 9 4 1 2 4 8 3 6 8 6 4 5 4 3 4 5 4 4 4 3 3 3 3 3 4 5 5 5 5 5 5 5 6 6 6 5 5 5 5 4 4 4
8 8 9 3 1 3 6 4 2 4 6 5 6 6 5 5 5 5 4 4 4 3 3 3 3 4 5 5 5 5 4 4 5 5 5 6 5 5 5 4 4 4 4 4
7 8 8 2 3 6 5 5 5 6 6 6 6 5 5 4 5 5 5 4 3 2 3 3 3 4 5 5 4 4 4 4 5 5 4 4 5 5 5 5 5 4 4 4
8 7 4 3 6 6 6 7 7 6 6 6 6 6 5 5 5 4 4 4 3 2 2 2 3 4 5 5 4 4 4 5 4 4 4 5 5 5 5 5 4 4 4 3
8 10 8 8 8 7 7 8 8 7 7 6 7 7 6 6 5 5 4 4 3 2 3 3 3 4 5 4 4 4 5 5 4 4 4 4 4 4 5 5 4 4 4 4
9 9 8 8 8 8 8 7 7 7 7 7 7 7 6 6 5 4 4 4 3 3 3 4 3 4 4 4 4 5 5 4 4 4 4 4 4 4 5 5 5 5 4 4
7 6 6 7 6 7 7 8 7 7 7 6 6 6 6 6 5 4 4 4 4 4 4 3 3 3 3 4 5 5 4 4 4 3 4 4 3 3 4 4 5 6 5 5
8 7 8 8 8 7 7 8 7 7 6 7 6 6 6 5 5 4 4 4 4 4 3 3 3 3 3 3 5 5 5 4 3 4 4 4 4 4 3 3 4 5 6 6
8 7 8 7 7 7 7 7 6 6 5 5 5 5 5 4 4 4 4 4 4 3 3 3 2 2 2 3 4 4 4 4 4 4 4 4 4 4 3 3 3 3 4 6
7 7 7 7 7 6 5 5 5 5 4 5 4 4 4 4 4 4 3 3 2 2 3 2 2 3 2 2 3 4 4 3 3 3 3 3 3 3 3 3 3 2 2 3
5 5 6 6 6 6 5 5 5 5 4 4 4 4 3 3 3 3 3 2 3 3 2 3 3 3 2 2 3 3 3 4 3 3 3 3 3 3 3 3 3 3 3 2
5 5 5 6 6 6 5 5 5 5 4 4 4 3 3 2 2 2 2 2 2 2 2 3 3 2 2 3 3 2 2 3 4 3 3 3 3 3 3 3 3 3 3 2
7 7 7 7 6 6 6 5 4 4 4 3 3 2 2 2 3 3 2 1 1 2 2 2 2 2 2 2 2 2 2 2 3 3 3 2 2 2 3 3 3 3 2 2
5 5 5 5 5 5 5 4 4 3 3 2 2 2 2 3 3 2 2 1 2 2 2 2 2 1 2 2 2 2 2 2 2 2 2 3 2 2 2 2 3 3 2 2
4 3 3 3 3 3 3 3 3 2 2 1 1 1 1 2 1 1 1 2 2 2 2 2 1 1 1 2 2 1 2 2 2 2 2 2 2 2 2 2 2 2 2 2
3 2 2 2 2 2 2 2 1 2 1 1 1 1 1 2 1 1 2 2 2 1 1 1 1 1 1 2 2 1 2 2 2 2 2 2 2 2 2 2 2 2 2 2
2 2 2 2 1 2 1 1 0 1 1 1 1 1 1 1 1 1 1 1 1 1 1 1 1 1 1 2 1 1 2 2 2 2 2 2 2 2 2 2 2 2 2 2
2 2 1 1 1 1 1 1 1 0 0 1 1 1 1 1 1 1 1 1 1 1 1 0 1 2 2 1 1 1 2 2 2 2 2 2 2 2 2 2 2 2 2 2
1 1 1 1 1 1 1 2 2 1 1 1 1 1 1 0 1 1 1 1 1 1 1 0 1 2 2 1 1 1 1 1 1 2 2 2 2 2 2 2 2 2 2 2
1 0 0 1 1 0 0 1 2 2 2 2 2 2 2 1 1 1 1 1 1 1 1 1 1 2 1 1 1 1 1 1 1 1 2 2 2 2 2 2 2 2 2 2
0 0 0 0 0 0 0 0 0 1 1 1 2 2 2 2 2 1 1 1 1 2 1 1 1 1 1 0 0 0 0 1 1 1 1 2 2 2 2 2 2 2 2 2
0 0 0 1 1 0 0 0 1 0 0 0 1 1 2 2 2 2 2 2 2 2 1 1 1 1 1 1 0 0 0 1 1 1 1 1 1 2 2 2 2 2 2 2
Wind_Direction
267 276 266 257 249 237 233 242 249 263 267 274 285 292 293 289 285 282 281 282 281 275 266 241 221 209 203 201 196 189 189 190 192 190 186 185 185 186 184 187 192 191 195 198
260 264 263 262 257 249 250 249 251 265 271 277 280 277 276 277 272 269 274 276 273 270 264 247 233 220 214 207 200 192 193 196 192 185 180 182 183 181 182 187 189 189 195 198
261 279 273 256 242 234 239 240 239 249 262 279 277 273 275 273 267 268 268 267 266 259 252 245 238 226 220 212 199 197 196 195 192 186 183 184 181 180 185 190 187 190 196 200
264 250 247 263 241 234 244 250 242 255 272 275 279 284 280 270 268 269 266 265 266 260 250 246 237 227 220 209 203 203 201 198 195 190 189 187 186 189 193 193 192 196 197 203
232 252 270 274 244 228 240 263 241 252 267 279 293 284 266 262 261 264 269 266 265 260 248 240 232 219 209 206 204 206 206 202 199 195 195 194 196 198 197 196 197 198 199 204
226 248 257 277 315 250 239 263 250 250 264 278 290 276 288 329 308 295 288 277 270 262 244 230 227 213 211 212 212 214 213 209 205 202 200 201 202 202 201 201 201 194 200 206
232 250 265 274 250 195 229 276 326 254 257 251 252 273 307 316 310 308 306 294 276 254 239 228 219 210 215 218 225 224 217 210 206 206 206 205 202 200 196 199 199 199 203 210
215 233 252 172 177 222 278 315 293 281 265 253 265 284 294 299 305 311 310 303 283 255 238 228 217 212 219 226 227 221 213 209 204 204 205 203 199 197 195 194 196 201 205 212
219 238 293 221 245 273 292 288 288 286 281 266 266 273 285 291 296 303 307 308 297 260 248 236 222 219 227 233 224 215 210 208 205 200 201 201 199 195 193 195 199 203 207 214
251 258 267 266 268 276 280 282 289 287 282 270 264 270 278 284 289 294 298 302 296 264 248 248 236 229 232 233 221 210 209 209 204 197 197 199 199 198 197 198 201 204 209 216
255 271 283 265 258 270 278 282 288 290 281 269 263 267 271 275 279 284 291 294 284 268 259 256 248 241 234 225 211 208 207 205 202 200 197 197 201 206 208 212 213 212 216 217
253 266 265 281 286 278 278 281 283 286 286 279 267 265 269 270 273 276 280 285 277 269 262 258 244 243 235 219 208 202 202 202 199 195 193 195 196 201 214 223 224 234 237 235
267 280 276 284 291 285 281 284 285 278 273 277 276 267 265 268 271 270 273 276 271 267 261 254 240 238 236 219 208 205 203 199 194 193 194 196 197 199 202 208 218 227 230 231
269 275 273 277 284 288 284 287 285 280 276 273 273 270 265 266 265 265 270 274 270 264 259 250 241 244 239 221 207 205 203 199 198 197 197 199 201 205 207 208 211 222 229 227
267 266 272 285 289 288 290 287 286 286 286 287 282 272 263 262 263 268 275 272 260 251 252 243 240 255 253 222 211 204 201 197 196 196 197 201 203 205 208 212 215 217 221 217
280 280 274 275 278 285 287 285 281 282 285 286 287 283 276 268 267 270 269 254 235 240 246 243 245 253 243 222 212 206 203 198 194 192 191 196 201 203 205 206 208 213 214 214
269 275 275 279 278 281 280 278 275 278 279 277 279 284 282 269 263 263 265 261 243 245 250 248 253 254 234 223 214 207 198 190 188 191 196 200 202 204 205 205 210 216 220 218
259 264 264 265 268 273 279 283 279 278 276 273 276 272 263 252 258 264 265 251 242 257 262 262 263 253 229 225 218 207 195 192 193 195 195 199 203 205 207 210 215 220 223 212
268 269 271 270 266 263 267 275 279 282 287 276 259 263 268 261 256 260 257 234 233 255 275 266 256 242 232 222 217 202 191 187 186 188 189 190 195 203 207 213 218 219 214 208
282 281 279 280 275 264 263 270 277 282 286 276 257 262 275 280 267 251 236 244 250 267 274 256 239 236 229 205 191 181 178 179 184 186 186 188 193 202 209 213 216 214 210 212
291 290 289 292 298 293 277 272 272 278 295 274 234 240 266 288 280 252 236 254 273 273 258 239 234 228 212 185 171 170 175 181 185 186 186 186 190 201 207 207 209 210 209 212
294 290 291 298 309 318 333 332 304 290 310 307 290 269 271 286 282 279 274 269 280 274 280 241 226 209 189 166 165 170 177 184 190 189 189 189 193 202 208 208 210 211 209 207
301 293 296 305 310 340 7 21 31 48 338 305 288 275 278 286 279 265 289 311 311 290 309 245 206 183 158 142 155 168 176 183 191 193 196 197 201 208 211 210 212 209 207 205
313 319 337 18 69 71 29 16 31 33 25 2 345 327 321 329 343 338 334 316 335 334 1 115 132 134 115 116 153 168 179 188 194 196 197 198 201 207 210 209 210 210 208 213
324 353 71 101 100 80 56 56 56 50 43 33 23 14 3 348 336 351 360 8 24 31 31 75 100 98 85 116 143 166 184 200 205 203 200 202 205 210 212 211 210 211 212 216
323 324 337 346 347 21 103 114 89 54 45 35 22 16 14 17 32 33 33 34 42 39 31 35 69 65 59 82 117 185 209 210 207 205 206 212 212 214 212 211 215 218 220 221
50 65 68 53 47 51 104 124 115 92 78 84 43 18 17 24 32 32 30 30 33 34 30 26 32 34 33 41 34 310 256 232 219 216 212 212 211 212 212 216 222 222 222 221